Time,TemperatureF,DewpointF,PressureIn,WindDirection,WindDirectionDegrees,WindSpeedMPH,WindSpeedGustMPH,Humidity,HourlyPrecipIn,Conditions,Clouds,dailyrainin,SoftwareType,DateUTC
2013-05-14 00:00:00,48.6,33.1,29.74,SW,223,0.0,0.0,55,0.00,,,0.00,Wunderground v.1.15,2013-05-14 06:00:00,
2013-05-14 00:10:00,48.5,33.5,29.74,SW,223,0.0,0.0,56,0.00,,,0.00,Wunderground v.1.15,2013-05-14 06:10:00,
2013-05-14 00:15:00,48.5,33.1,29.73,SW,223,0.0,0.0,55,0.00,,,0.00,Wunderground v.1.15,2013-05-14 06:15:00,
2013-05-14 00:25:00,48.3,33.3,29.73,SW,223,0.0,0.0,56,0.00,,,0.00,Wunderground v.1.15,2013-05-14 06:25:00,
2013-05-14 00:35:00,48.3,32.9,29.72,SW,223,0.0,0.0,55,0.00,,,0.00,Wunderground v.1.15,2013-05-14 06:35:00,
2013-05-14 00:40:00,48.2,33.7,29.72,SW,223,0.0,0.0,57,0.00,,,0.00,Wunderground v.1.15,2013-05-14 06:40:00,
2013-05-14 00:45:00,47.7,33.6,29.72,SW,223,0.0,0.0,58,0.00,,,0.00,Wunderground v.1.15,2013-05-14 06:45:00,
2013-05-14 00:55:00,47.9,33.8,29.72,SSW,198,0.0,6.0,58,0.00,,,0.00,Wunderground v.1.15,2013-05-14 06:55:00,
2013-05-14 01:00:00,50.2,31.8,29.71,South,171,1.0,1.0,49,0.00,,,0.00,Wunderground v.1.15,2013-05-14 07:00:00,
2013-05-14 01:10:00,53.1,31.2,29.71,South,182,2.0,7.0,43,0.00,,,0.00,Wunderground v.1.15,2013-05-14 07:10:00,
2013-05-14 01:15:00,58.6,28.8,29.65,West,275,4.0,7.0,32,0.00,,,0.00,Wunderground v.1.15,2013-05-14 07:15:00,
2013-05-14 01:25:00,61.2,28.7,29.65,WSW,243,3.0,5.0,29,0.00,,,0.00,Wunderground v.1.15,2013-05-14 07:25:00,
2013-05-14 01:35:00,61.5,28.1,29.61,South,186,3.0,3.0,28,0.00,,,0.00,Wunderground v.1.15,2013-05-14 07:35:00,
2013-05-14 01:40:00,61.6,28.1,29.61,West,274,4.0,11.0,28,0.00,,,0.00,Wunderground v.1.15,2013-05-14 07:40:00,
2013-05-14 01:45:00,61.5,28.1,29.61,South,185,3.0,3.0,28,0.00,,,0.00,Wunderground v.1.15,2013-05-14 07:45:00,
2013-05-14 01:55:00,61.0,29.3,29.61,West,281,1.0,1.0,30,0.00,,,0.00,Wunderground v.1.15,2013-05-14 07:55:00,
2013-05-14 02:00:00,60.5,28.9,29.61,WSW,243,1.0,1.0,30,0.00,,,0.00,Wunderground v.1.15,2013-05-14 08:00:00,
2013-05-14 02:10:00,60.1,29.3,29.61,WNW,289,1.0,1.0,31,0.00,,,0.00,Wunderground v.1.15,2013-05-14 08:10:00,
2013-05-14 02:20:00,59.9,28.4,29.62,SW,226,0.0,1.0,30,0.00,,,0.00,Wunderground v.1.15,2013-05-14 08:20:00,
2013-05-14 02:25:00,59.9,28.4,29.62,NE,52,1.0,1.0,30,0.00,,,0.00,Wunderground v.1.15,2013-05-14 08:25:00,
2013-05-14 02:30:00,59.9,28.4,29.59,SSW,195,1.0,2.0,30,0.00,,,0.00,Wunderground v.1.15,2013-05-14 08:30:00,
2013-05-14 02:40:00,60.1,28.5,29.59,South,178,1.0,2.0,30,0.00,,,0.00,Wunderground v.1.15,2013-05-14 08:40:00,
2013-05-14 02:45:00,60.2,28.6,29.59,WNW,289,1.0,4.0,30,0.00,,,0.00,Wunderground v.1.15,2013-05-14 08:45:00,
2013-05-14 02:55:00,60.1,27.7,29.59,South,169,1.0,2.0,29,0.00,,,0.00,Wunderground v.1.15,2013-05-14 08:55:00,
2013-05-14 03:00:00,60.2,27.8,29.59,South,179,1.0,1.0,29,0.00,,,0.00,Wunderground v.1.15,2013-05-14 09:00:00,
2013-05-14 03:10:00,60.5,28.1,29.59,SSW,193,1.0,1.0,29,0.00,,,0.00,Wunderground v.1.15,2013-05-14 09:10:00,
2013-05-14 03:15:00,60.7,27.4,29.59,SSE,151,2.0,2.0,28,0.00,,,0.00,Wunderground v.1.15,2013-05-14 09:15:00,
2013-05-14 03:25:00,60.7,27.4,29.59,SW,215,1.0,2.0,28,0.00,,,0.00,Wunderground v.1.15,2013-05-14 09:25:00,
2013-05-14 03:30:00,60.7,27.4,29.59,SE,145,2.0,2.0,28,0.00,,,0.00,Wunderground v.1.15,2013-05-14 09:30:00,
2013-05-14 03:40:00,61.2,27.8,29.59,West,280,3.0,3.0,28,0.00,,,0.00,Wunderground v.1.15,2013-05-14 09:40:00,
2013-05-14 03:45:00,61.3,27.9,29.59,West,281,3.0,8.0,28,0.00,,,0.00,Wunderground v.1.15,2013-05-14 09:45:00,
2013-05-14 03:55:00,61.5,28.1,29.59,East,96,5.0,5.0,28,0.00,,,0.00,Wunderground v.1.15,2013-05-14 09:55:00,
2013-05-14 04:00:00,61.5,28.1,29.58,NNW,339,4.0,4.0,28,0.00,,,0.00,Wunderground v.1.15,2013-05-14 10:00:00,
2013-05-14 04:10:00,61.6,27.3,29.58,SW,215,5.0,5.0,27,0.00,,,0.00,Wunderground v.1.15,2013-05-14 10:10:00,
2013-05-14 04:15:00,61.8,27.4,29.57,SE,124,5.0,5.0,27,0.00,,,0.00,Wunderground v.1.15,2013-05-14 10:15:00,
2013-05-14 04:25:00,61.8,27.4,29.57,SSE,167,5.0,5.0,27,0.00,,,0.00,Wunderground v.1.15,2013-05-14 10:25:00,
2013-05-14 04:30:00,61.6,27.3,29.57,WNW,289,5.0,7.0,27,0.00,,,0.00,Wunderground v.1.15,2013-05-14 10:30:00,
2013-05-14 04:40:00,61.6,27.3,29.57,South,169,5.0,5.0,27,0.00,,,0.00,Wunderground v.1.15,2013-05-14 10:40:00,
2013-05-14 04:45:00,61.6,27.3,29.57,SW,227,5.0,5.0,27,0.00,,,0.00,Wunderground v.1.15,2013-05-14 10:45:00,
2013-05-14 04:55:00,61.6,27.3,29.57,South,178,3.0,5.0,27,0.00,,,0.00,Wunderground v.1.15,2013-05-14 10:55:00,
2013-05-14 05:00:00,61.3,27.0,29.57,SW,222,3.0,3.0,27,0.00,,,0.00,Wunderground v.1.15,2013-05-14 11:00:00,
2013-05-14 05:10:00,61.6,27.3,29.57,SSW,196,4.0,4.0,27,0.00,,,0.00,Wunderground v.1.15,2013-05-14 11:10:00,
2013-05-14 05:15:00,61.5,27.2,29.57,SSE,167,4.0,4.0,27,0.00,,,0.00,Wunderground v.1.15,2013-05-14 11:15:00,
2013-05-14 05:25:00,61.6,27.3,29.57,WNW,287,2.0,8.0,27,0.00,,,0.00,Wunderground v.1.15,2013-05-14 11:25:00,
2013-05-14 05:30:00,61.8,26.5,29.59,SSW,202,3.0,3.0,26,0.00,,,0.00,Wunderground v.1.15,2013-05-14 11:30:00,
2013-05-14 05:40:00,61.5,27.2,29.59,SSW,198,1.0,3.0,27,0.00,,,0.00,Wunderground v.1.15,2013-05-14 11:40:00,
2013-05-14 05:45:00,61.6,27.3,29.59,WNW,287,3.0,13.0,27,0.00,,,0.00,Wunderground v.1.15,2013-05-14 11:45:00,
2013-05-14 05:55:00,61.5,27.2,29.59,WNW,295,3.0,4.0,27,0.00,,,0.00,Wunderground v.1.15,2013-05-14 11:55:00,
2013-05-14 06:10:00,61.3,26.1,29.60,South,191,3.0,3.0,26,0.00,,,0.00,Wunderground v.1.15,2013-05-14 12:10:00,
2013-05-14 06:15:00,61.3,26.1,29.60,SW,229,1.0,3.0,26,0.00,,,0.00,Wunderground v.1.15,2013-05-14 12:15:00,
2013-05-14 06:25:00,61.5,26.3,29.60,South,182,2.0,2.0,26,0.00,,,0.00,Wunderground v.1.15,2013-05-14 12:25:00,
2013-05-14 06:30:00,61.6,25.4,29.61,WSW,253,2.0,2.0,25,0.00,,,0.00,Wunderground v.1.15,2013-05-14 12:30:00,
2013-05-14 06:40:00,61.8,25.6,29.61,WNW,288,2.0,3.0,25,0.00,,,0.00,Wunderground v.1.15,2013-05-14 12:40:00,
2013-05-14 06:46:00,62.0,25.7,29.61,WNW,301,3.0,5.0,25,0.00,,,0.00,Wunderground v.1.15,2013-05-14 12:46:00,
2013-05-14 06:55:00,62.4,26.1,29.61,WNW,282,3.0,11.0,25,0.00,,,0.00,Wunderground v.1.15,2013-05-14 12:55:00,
2013-05-14 07:05:00,62.7,26.3,29.61,SW,223,3.0,3.0,25,0.00,,,0.00,Wunderground v.1.15,2013-05-14 13:05:00,
2013-05-14 07:10:00,62.9,26.5,29.61,SSW,200,2.0,3.0,25,0.00,,,0.00,Wunderground v.1.15,2013-05-14 13:10:00,
2013-05-14 07:15:00,62.9,26.5,29.61,West,274,2.0,2.0,25,0.00,,,0.00,Wunderground v.1.15,2013-05-14 13:15:00,
2013-05-14 07:25:00,63.2,26.8,29.61,West,274,2.0,2.0,25,0.00,,,0.00,Wunderground v.1.15,2013-05-14 13:25:00,
2013-05-14 07:35:00,64.0,25.4,29.65,SW,216,3.0,3.0,23,0.00,,,0.00,Wunderground v.1.15,2013-05-14 13:35:00,
2013-05-14 07:40:00,64.3,25.7,29.65,WSW,257,3.0,3.0,23,0.00,,,0.00,Wunderground v.1.15,2013-05-14 13:40:00,
2013-05-14 07:46:00,64.7,26.0,29.63,WNW,282,4.0,10.0,23,0.00,,,0.00,Wunderground v.1.15,2013-05-14 13:46:00,
2013-05-14 07:55:00,65.2,26.4,29.63,West,268,2.0,6.0,23,0.00,,,0.00,Wunderground v.1.15,2013-05-14 13:55:00,
2013-05-14 08:00:00,65.5,25.6,29.62,WSW,248,2.0,2.0,22,0.00,,,0.00,Wunderground v.1.15,2013-05-14 14:00:00,
2013-05-14 08:10:00,65.8,25.9,29.62,West,271,2.0,5.0,22,0.00,,,0.00,Wunderground v.1.15,2013-05-14 14:10:00,
2013-05-14 08:15:00,66.1,26.1,29.63,SSW,202,3.0,5.0,22,0.00,,,0.00,Wunderground v.1.15,2013-05-14 14:15:00,
2013-05-14 08:25:00,66.6,26.5,29.63,SW,216,3.0,3.0,22,0.00,,,0.00,Wunderground v.1.15,2013-05-14 14:25:00,
2013-05-14 08:30:00,66.8,24.4,29.69,SSE,158,3.0,3.0,20,0.00,,,0.00,Wunderground v.1.15,2013-05-14 14:30:00,
2013-05-14 08:40:00,67.3,27.1,29.69,SSW,206,1.0,2.0,22,0.00,,,0.00,Wunderground v.1.15,2013-05-14 14:40:00,
2013-05-14 08:46:00,67.8,26.4,29.68,SW,236,2.0,2.0,21,0.00,,,0.00,Wunderground v.1.15,2013-05-14 14:46:00,
2013-05-14 08:55:00,67.9,26.5,29.68,West,278,3.0,12.0,21,0.00,,,0.00,Wunderground v.1.15,2013-05-14 14:55:00,
2013-05-14 09:00:00,68.3,26.8,29.67,South,182,2.0,2.0,21,0.00,,,0.00,Wunderground v.1.15,2013-05-14 15:00:00,
2013-05-14 09:10:00,68.6,25.9,29.67,SW,223,3.0,3.0,20,0.00,,,0.00,Wunderground v.1.15,2013-05-14 15:10:00,
2013-05-14 09:16:00,68.8,26.1,29.68,SSW,199,2.0,3.0,20,0.00,,,0.00,Wunderground v.1.15,2013-05-14 15:16:00,
2013-05-14 09:25:00,69.1,26.3,29.68,West,277,1.0,6.0,20,0.00,,,0.00,Wunderground v.1.15,2013-05-14 15:25:00,
2013-05-14 09:30:00,69.4,26.6,29.71,SSW,203,2.0,2.0,20,0.00,,,0.00,Wunderground v.1.15,2013-05-14 15:30:00,
2013-05-14 09:40:00,69.8,26.9,29.71,SSW,210,2.0,2.0,20,0.00,,,0.00,Wunderground v.1.15,2013-05-14 15:40:00,
2013-05-14 09:45:00,70.1,28.3,29.70,WNW,296,2.0,2.0,21,0.00,,,0.00,Wunderground v.1.15,2013-05-14 15:45:00,
2013-05-14 09:55:00,70.9,27.8,29.70,South,191,1.0,6.0,20,0.00,,,0.00,Wunderground v.1.15,2013-05-14 15:55:00,
2013-05-14 10:00:00,70.8,27.7,29.70,SSW,208,2.0,3.0,20,0.00,,,0.00,Wunderground v.1.15,2013-05-14 16:00:00,
2013-05-14 10:10:00,70.8,27.7,29.70,South,186,4.0,4.0,20,0.00,,,0.00,Wunderground v.1.15,2013-05-14 16:10:00,
2013-05-14 10:15:00,70.9,27.8,29.70,West,280,2.0,4.0,20,0.00,,,0.00,Wunderground v.1.15,2013-05-14 16:15:00,
2013-05-14 10:25:00,70.9,27.8,29.70,West,278,2.0,4.0,20,0.00,,,0.00,Wunderground v.1.15,2013-05-14 16:25:00,
2013-05-14 10:30:00,71.3,28.1,29.71,West,281,3.0,3.0,20,0.00,,,0.00,Wunderground v.1.15,2013-05-14 16:30:00,
2013-05-14 10:40:00,71.6,28.4,29.71,WNW,301,3.0,3.0,20,0.00,,,0.00,Wunderground v.1.15,2013-05-14 16:40:00,
2013-05-14 10:45:00,71.3,29.3,29.72,North,349,3.0,3.0,21,0.00,,,0.00,Wunderground v.1.15,2013-05-14 16:45:00,
2013-05-14 10:55:00,70.9,27.8,29.72,South,191,1.0,2.0,20,0.00,,,0.00,Wunderground v.1.15,2013-05-14 16:55:00,
2013-05-14 11:00:00,70.3,28.5,29.71,South,188,1.0,1.0,21,0.00,,,0.00,Wunderground v.1.15,2013-05-14 17:00:00,
2013-05-14 11:10:00,69.4,28.9,29.71,SSW,195,0.0,0.0,22,0.00,,,0.00,Wunderground v.1.15,2013-05-14 17:10:00,
2013-05-14 11:15:00,69.4,28.9,29.71,SW,226,0.0,0.0,22,0.00,,,0.00,Wunderground v.1.15,2013-05-14 17:15:00,
2013-05-14 11:25:00,69.3,27.7,29.71,SSW,210,0.0,1.0,21,0.00,,,0.00,Wunderground v.1.15,2013-05-14 17:25:00,
2013-05-14 11:30:00,69.3,26.5,29.73,SSE,168,0.0,0.0,20,0.00,,,0.00,Wunderground v.1.15,2013-05-14 17:30:00,
2013-05-14 11:40:00,69.6,29.0,29.73,South,178,0.0,0.0,22,0.00,,,0.00,Wunderground v.1.15,2013-05-14 17:40:00,
2013-05-14 11:45:00,70.1,29.5,29.71,South,179,0.0,0.0,22,0.00,,,0.00,Wunderground v.1.15,2013-05-14 17:45:00,
2013-05-14 11:55:00,70.6,27.5,29.71,South,186,0.0,0.0,20,0.00,,,0.00,Wunderground v.1.15,2013-05-14 17:55:00,
2013-05-14 12:00:00,71.3,26.9,29.70,SSW,205,0.0,0.0,19,0.00,,,0.00,Wunderground v.1.15,2013-05-14 18:00:00,
2013-05-14 12:05:00,71.5,27.0,29.70,SSW,205,0.0,0.0,19,0.00,,,0.00,Wunderground v.1.15,2013-05-14 18:05:00,
2013-05-14 12:15:00,73.3,27.2,29.68,SSW,205,0.0,0.0,18,0.00,,,0.00,Wunderground v.1.15,2013-05-14 18:15:00,
2013-05-14 12:25:00,73.2,28.4,29.68,North,0,0.0,3.0,19,0.00,,,0.00,Wunderground v.1.15,2013-05-14 18:25:00,
2013-05-14 12:30:00,71.5,29.5,29.60,SSW,198,1.0,1.0,21,0.00,,,0.00,Wunderground v.1.15,2013-05-14 18:30:00,
2013-05-14 12:40:00,69.9,31.4,29.60,North,4,1.0,8.0,24,0.00,,,0.00,Wunderground v.1.15,2013-05-14 18:40:00,
2013-05-14 12:45:00,69.3,29.9,29.61,North,353,1.0,8.0,23,0.00,,,0.00,Wunderground v.1.15,2013-05-14 18:45:00,
2013-05-14 12:55:00,68.6,29.3,29.61,North,8,1.0,3.0,23,0.00,,,0.00,Wunderground v.1.15,2013-05-14 18:55:00,
2013-05-14 13:00:00,68.4,31.2,29.63,North,8,0.0,0.0,25,0.00,,,0.00,Wunderground v.1.15,2013-05-14 19:00:00,
2013-05-14 13:10:00,67.6,32.4,29.63,North,0,3.0,8.0,27,0.00,,,0.00,Wunderground v.1.15,2013-05-14 19:10:00,
2013-05-14 13:15:00,66.6,32.5,29.64,North,0,4.0,8.0,28,0.00,,,0.00,Wunderground v.1.15,2013-05-14 19:15:00,
2013-05-14 13:25:00,66.1,32.0,29.64,North,8,2.0,3.0,28,0.00,,,0.00,Wunderground v.1.15,2013-05-14 19:25:00,
2013-05-14 13:30:00,66.6,31.5,29.62,North,0,1.0,2.0,27,0.00,,,0.00,Wunderground v.1.15,2013-05-14 19:30:00,
2013-05-14 13:40:00,66.6,31.5,29.62,North,0,1.0,1.0,27,0.00,,,0.00,Wunderground v.1.15,2013-05-14 19:40:00,
2013-05-14 13:45:00,66.6,32.5,29.62,North,0,0.0,1.0,28,0.00,,,0.00,Wunderground v.1.15,2013-05-14 19:45:00,
2013-05-14 13:55:00,66.8,31.7,29.62,North,4,0.0,0.0,27,0.00,,,0.00,Wunderground v.1.15,2013-05-14 19:55:00,
2013-05-14 14:00:00,66.8,29.8,29.62,North,0,0.0,0.0,25,0.00,,,0.00,Wunderground v.1.15,2013-05-14 20:00:00,
2013-05-14 14:10:00,66.4,32.3,29.62,North,359,0.0,0.0,28,0.00,,,0.00,Wunderground v.1.15,2013-05-14 20:10:00,
2013-05-14 14:15:00,66.4,30.4,29.61,SSE,152,0.0,0.0,26,0.00,,,0.00,Wunderground v.1.15,2013-05-14 20:15:00,
2013-05-14 14:25:00,66.8,30.8,29.61,SE,144,0.0,0.0,26,0.00,,,0.00,Wunderground v.1.15,2013-05-14 20:25:00,
2013-05-14 14:30:00,66.8,30.8,29.59,SSW,202,0.0,0.0,26,0.00,,,0.00,Wunderground v.1.15,2013-05-14 20:30:00,
2013-05-14 14:40:00,66.3,33.1,29.59,WSW,250,0.0,0.0,29,0.00,,,0.00,Wunderground v.1.15,2013-05-14 20:40:00,
2013-05-14 14:46:00,65.5,34.0,29.60,ENE,76,1.0,1.0,31,0.00,,,0.00,Wunderground v.1.15,2013-05-14 20:46:00,
2013-05-14 14:55:00,65.2,29.4,29.60,SSW,209,0.0,0.0,26,0.00,,,0.00,Wunderground v.1.15,2013-05-14 20:55:00,
2013-05-14 15:00:00,65.3,35.4,29.61,NE,40,0.0,0.0,33,0.00,,,0.00,Wunderground v.1.15,2013-05-14 21:00:00,
2013-05-14 15:10:00,64.2,34.5,29.61,NNE,25,0.0,0.0,33,0.00,,,0.00,Wunderground v.1.15,2013-05-14 21:10:00,
2013-05-14 15:16:00,63.7,34.8,29.60,NE,34,0.0,0.0,34,0.00,,,0.00,Wunderground v.1.15,2013-05-14 21:16:00,
2013-05-14 15:25:00,62.6,33.8,29.60,SSW,202,0.0,0.0,34,0.00,,,0.00,Wunderground v.1.15,2013-05-14 21:25:00,
2013-05-14 15:35:00,62.4,32.1,29.59,SW,227,0.0,0.0,32,0.00,,,0.00,Wunderground v.1.15,2013-05-14 21:35:00,
2013-05-14 15:40:00,63.1,33.5,29.59,SW,229,0.0,0.0,33,0.00,,,0.00,Wunderground v.1.15,2013-05-14 21:40:00,
2013-05-14 15:45:00,64.7,36.4,29.56,North,353,0.0,0.0,35,0.00,,,0.00,Wunderground v.1.15,2013-05-14 21:45:00,
2013-05-14 15:55:00,67.3,32.1,29.56,SE,145,1.0,1.0,27,0.00,,,0.00,Wunderground v.1.15,2013-05-14 21:55:00,
2013-05-14 16:00:00,67.3,32.1,29.55,SW,224,1.0,1.0,27,0.00,,,0.00,Wunderground v.1.15,2013-05-14 22:00:00,
2013-05-14 16:10:00,66.4,32.3,29.55,SW,216,1.0,1.0,28,0.00,,,0.00,Wunderground v.1.15,2013-05-14 22:10:00,
2013-05-14 16:15:00,65.5,32.4,29.55,SW,219,2.0,2.0,29,0.00,,,0.00,Wunderground v.1.15,2013-05-14 22:15:00,
2013-05-14 16:25:00,64.8,33.4,29.55,West,261,2.0,5.0,31,0.00,,,0.00,Wunderground v.1.15,2013-05-14 22:25:00,
2013-05-14 16:30:00,65.0,35.2,29.56,SSW,195,2.0,2.0,33,0.00,,,0.00,Wunderground v.1.15,2013-05-14 22:30:00,
2013-05-14 16:40:00,65.3,33.9,29.56,South,185,1.0,5.0,31,0.00,,,0.00,Wunderground v.1.15,2013-05-14 22:40:00,
2013-05-14 16:50:00,65.3,31.3,29.56,SSW,208,2.0,2.0,28,0.00,,,0.00,Wunderground v.1.15,2013-05-14 22:50:00,
2013-05-14 17:05:00,67.9,32.7,29.54,SSW,199,1.0,1.0,27,0.00,,,0.00,Wunderground v.1.15,2013-05-14 23:05:00,
2013-05-14 17:10:00,67.6,32.4,29.54,SW,219,1.0,1.0,27,0.00,,,0.00,Wunderground v.1.15,2013-05-14 23:10:00,
2013-05-14 17:15:00,67.6,32.4,29.54,SW,229,1.0,1.0,27,0.00,,,0.00,Wunderground v.1.15,2013-05-14 23:15:00,
2013-05-14 17:25:00,67.6,31.5,29.54,SSE,150,0.0,0.0,26,0.00,,,0.00,Wunderground v.1.15,2013-05-14 23:25:00,
2013-05-14 17:30:00,67.8,33.5,29.55,SSE,150,0.0,0.0,28,0.00,,,0.00,Wunderground v.1.15,2013-05-14 23:30:00,
2013-05-14 17:40:00,67.6,33.3,29.55,NNW,344,0.0,0.0,28,0.00,,,0.00,Wunderground v.1.15,2013-05-14 23:40:00,
2013-05-14 17:45:00,67.1,32.0,29.54,NNE,25,0.0,0.0,27,0.00,,,0.00,Wunderground v.1.15,2013-05-14 23:45:00,
2013-05-14 17:55:00,66.3,31.3,29.54,NNE,16,0.0,0.0,27,0.00,,,0.00,Wunderground v.1.15,2013-05-14 23:55:00,
2013-05-14 18:00:00,66.1,33.7,29.57,NNE,16,0.0,0.0,30,0.00,,,0.00,Wunderground v.1.15,2013-05-15 00:00:00,
2013-05-14 18:10:00,65.2,32.1,29.57,NNE,16,0.0,0.0,29,0.00,,,0.00,Wunderground v.1.15,2013-05-15 00:10:00,
2013-05-14 18:16:00,64.7,31.7,29.58,WSW,258,0.0,0.0,29,0.00,,,0.00,Wunderground v.1.15,2013-05-15 00:16:00,
2013-05-14 18:25:00,62.4,33.6,29.58,South,174,3.0,9.0,34,0.00,,,0.00,Wunderground v.1.15,2013-05-15 00:25:00,
2013-05-14 18:30:00,61.0,34.5,29.59,South,189,3.0,3.0,37,0.00,,,0.00,Wunderground v.1.15,2013-05-15 00:30:00,
2013-05-14 18:40:00,60.2,34.5,29.59,West,271,5.0,5.0,38,0.00,,,0.00,Wunderground v.1.15,2013-05-15 00:40:00,
2013-05-14 18:45:00,60.2,33.8,29.61,WSW,250,3.0,5.0,37,0.00,,,0.00,Wunderground v.1.15,2013-05-15 00:45:00,
2013-05-14 18:55:00,60.4,33.3,29.61,SSW,198,1.0,3.0,36,0.00,,,0.00,Wunderground v.1.15,2013-05-15 00:55:00,
2013-05-14 19:00:00,60.4,32.6,29.58,SSW,196,2.0,2.0,35,0.00,,,0.00,Wunderground v.1.15,2013-05-15 01:00:00,
2013-05-14 19:10:00,60.5,32.7,29.58,SSW,206,2.0,2.0,35,0.00,,,0.00,Wunderground v.1.15,2013-05-15 01:10:00,
2013-05-14 19:15:00,60.9,31.6,29.58,SW,223,1.0,2.0,33,0.00,,,0.00,Wunderground v.1.15,2013-05-15 01:15:00,
2013-05-14 19:25:00,61.0,30.9,29.58,SW,215,1.0,1.0,32,0.00,,,0.00,Wunderground v.1.15,2013-05-15 01:25:00,
2013-05-14 19:30:00,61.2,31.8,29.57,SSW,205,1.0,3.0,33,0.00,,,0.00,Wunderground v.1.15,2013-05-15 01:30:00,
2013-05-14 19:40:00,61.2,31.8,29.57,WSW,247,1.0,1.0,33,0.00,,,0.00,Wunderground v.1.15,2013-05-15 01:40:00,
2013-05-14 19:45:00,61.0,32.4,29.57,SW,215,0.0,1.0,34,0.00,,,0.00,Wunderground v.1.15,2013-05-15 01:45:00,
2013-05-14 19:55:00,60.4,31.9,29.57,WNW,289,0.0,1.0,34,0.00,,,0.00,Wunderground v.1.15,2013-05-15 01:55:00,
2013-05-14 20:00:00,60.1,32.3,29.57,SSW,212,1.0,1.0,35,0.00,,,0.00,Wunderground v.1.15,2013-05-15 02:00:00,
2013-05-14 20:10:00,59.6,31.9,29.57,West,281,1.0,4.0,35,0.00,,,0.00,Wunderground v.1.15,2013-05-15 02:10:00,
2013-05-14 20:16:00,59.6,31.9,29.57,West,263,1.0,4.0,35,0.00,,,0.00,Wunderground v.1.15,2013-05-15 02:16:00,
2013-05-14 20:25:00,59.3,31.6,29.57,WSW,253,0.0,0.0,35,0.00,,,0.00,Wunderground v.1.15,2013-05-15 02:25:00,
2013-05-14 20:35:00,58.4,33.5,29.56,WSW,253,0.0,0.0,39,0.00,,,0.00,Wunderground v.1.15,2013-05-15 02:35:00,
2013-05-14 20:40:00,57.6,34.1,29.56,WSW,253,0.0,0.0,41,0.00,,,0.00,Wunderground v.1.15,2013-05-15 02:40:00,
2013-05-14 20:45:00,56.6,33.2,29.59,WSW,253,0.0,0.0,41,0.00,,,0.00,Wunderground v.1.15,2013-05-15 02:45:00,
2013-05-14 20:55:00,58.1,32.6,29.59,SSE,162,2.0,3.0,38,0.00,,,0.00,Wunderground v.1.15,2013-05-15 02:55:00,
2013-05-14 21:00:00,58.7,33.1,29.59,WNW,296,3.0,3.0,38,0.00,,,0.00,Wunderground v.1.15,2013-05-15 03:00:00,
2013-05-14 21:10:00,58.4,34.2,29.59,West,274,4.0,4.0,40,0.00,,,0.00,Wunderground v.1.15,2013-05-15 03:10:00,
2013-05-14 21:15:00,58.3,34.1,29.60,NW,312,5.0,19.0,40,0.00,,,0.00,Wunderground v.1.15,2013-05-15 03:15:00,
2013-05-14 21:25:00,58.4,33.5,29.60,SW,220,5.0,5.0,39,0.00,,,0.00,Wunderground v.1.15,2013-05-15 03:25:00,
2013-05-14 21:30:00,58.4,33.5,29.58,South,188,4.0,10.0,39,0.00,,,0.00,Wunderground v.1.15,2013-05-15 03:30:00,
2013-05-14 21:40:00,58.4,33.5,29.58,WNW,282,5.0,8.0,39,0.00,,,0.00,Wunderground v.1.15,2013-05-15 03:40:00,
2013-05-14 21:45:00,58.6,33.0,29.56,WNW,288,5.0,10.0,38,0.00,,,0.00,Wunderground v.1.15,2013-05-15 03:45:00,
2013-05-14 21:55:00,59.2,31.5,29.56,South,188,5.0,5.0,35,0.00,,,0.00,Wunderground v.1.15,2013-05-15 03:55:00,
2013-05-14 22:00:00,59.3,32.3,29.57,West,280,5.0,5.0,36,0.00,,,0.00,Wunderground v.1.15,2013-05-15 04:00:00,
2013-05-14 22:05:00,59.2,31.5,29.57,West,264,4.0,5.0,35,0.00,,,0.00,Wunderground v.1.15,2013-05-15 04:05:00,
2013-05-14 22:10:00,59.3,31.6,29.57,West,265,2.0,2.0,35,0.00,,,0.00,Wunderground v.1.15,2013-05-15 04:10:00,
2013-05-14 22:16:00,59.6,31.2,29.57,West,263,1.0,2.0,34,0.00,,,0.00,Wunderground v.1.15,2013-05-15 04:16:00,
2013-05-14 22:20:00,59.6,31.9,29.57,West,274,1.0,5.0,35,0.00,,,0.00,Wunderground v.1.15,2013-05-15 04:20:00,
2013-05-14 22:25:00,59.3,31.6,29.57,SW,215,1.0,5.0,35,0.00,,,0.00,Wunderground v.1.15,2013-05-15 04:25:00,
2013-05-14 22:30:00,59.2,31.5,29.58,WNW,282,2.0,2.0,35,0.00,,,0.00,Wunderground v.1.15,2013-05-15 04:30:00,
2013-05-14 22:40:00,59.2,31.5,29.58,South,188,2.0,2.0,35,0.00,,,0.00,Wunderground v.1.15,2013-05-15 04:40:00,
2013-05-14 22:45:00,59.2,30.8,29.57,NW,304,2.0,8.0,34,0.00,,,0.00,Wunderground v.1.15,2013-05-15 04:45:00,
2013-05-14 22:55:00,59.0,31.4,29.57,WNW,299,2.0,2.0,35,0.00,,,0.00,Wunderground v.1.15,2013-05-15 04:55:00,
2013-05-14 23:00:00,58.7,32.5,29.56,West,265,0.0,0.0,37,0.00,,,0.00,Wunderground v.1.15,2013-05-15 05:00:00,
2013-05-14 23:10:00,58.1,33.2,29.56,West,265,0.0,0.0,39,0.00,,,0.00,Wunderground v.1.15,2013-05-15 05:10:00,
2013-05-14 23:30:00,56.0,34.9,29.54,West,265,0.0,0.0,45,0.00,,,0.00,Wunderground v.1.15,2013-05-15 05:30:00,
2013-05-14 23:40:00,55.6,34.6,29.54,West,265,0.0,0.0,45,0.00,,,0.00,Wunderground v.1.15,2013-05-15 05:40:00,
2013-05-14 23:45:00,55.4,34.4,29.54,West,265,0.0,0.0,45,0.00,,,0.00,Wunderground v.1.15,2013-05-15 05:45:00,
2013-05-14 23:55:00,54.7,34.8,29.54,West,265,0.0,0.0,47,0.00,,,0.00,Wunderground v.1.15,2013-05-15 05:55:00,